| time (UTC) | temp F | wind direction | speed MPH | gust MPH | rain 1hr in | rain 24hr in | rain mn in | humidity % | barometer mb |
| 20260509011511 | 61 | 196 | 0.0 | 0.0 | 0.00 | 0.00 | 0.00 | 54 | 1005.7 |
| 20260509011012 | 61 | 196 | 0.0 | 0.0 | 0.00 | 0.00 | 0.00 | 54 | 1006.0 |
| 20260509010013 | 62 | 196 | 0.0 | 0.0 | 0.00 | 0.00 | 0.00 | 50 | 1006.0 |
| 20260509005011 | 62 | 196 | 0.0 | 0.0 | 0.00 | 0.00 | 0.00 | 50 | 1005.9 |
| 20260509004512 | 63 | 196 | 0.0 | 0.0 | 0.00 | 0.00 | 0.00 | 50 | 1005.9 |
| 20260509003511 | 63 | 196 | 0.0 | 0.0 | 0.00 | 0.00 | 0.00 | 46 | 1005.9 |
| 20260509003012 | 64 | 196 | 0.0 | 0.0 | 0.00 | 0.00 | 0.00 | 45 | 1005.9 |
| 20260509002511 | 64 | 196 | 0.0 | 0.0 | 0.00 | 0.00 | 0.00 | 45 | 1005.9 |
| 20260509002011 | 64 | 196 | 0.0 | 0.0 | 0.00 | 0.00 | 0.00 | 44 | 1005.9 |
| 20260509001511 | 65 | 196 | 0.0 | 0.0 | 0.00 | 0.00 | 0.00 | 41 | 1005.9 |
| 20260509001011 | 66 | 196 | 0.0 | 0.0 | 0.00 | 0.00 | 0.00 | 39 | 1004.9 |
| 20260509000511 | 66 | 196 | 0.0 | 0.0 | 0.00 | 0.00 | 0.00 | 39 | 1004.9 |
| 20260509000011 | 66 | 196 | 0.0 | 0.0 | 0.00 | 0.00 | 0.00 | 36 | 1004.9 |
| 20260508235511 | 67 | 196 | 0.0 | 0.0 | 0.00 | 0.00 | 0.00 | 35 | 1005.9 |
| 20260508235011 | 67 | 196 | 0.0 | 0.0 | 0.00 | 0.00 | 0.00 | 34 | 1005.9 |
| 20260508234011 | 68 | 224 | 3.0 | 0.0 | 0.00 | 0.00 | 0.00 | 34 | 1006.0 |
| 20260508233511 | 68 | 198 | 0.0 | 0.0 | 0.00 | 0.00 | 0.00 | 33 | 1006.0 |
| 20260508232011 | 69 | 191 | 0.0 | 0.0 | 0.00 | 0.00 | 0.00 | 31 | 1006.1 |
| 20260508231511 | 69 | 191 | 7.0 | 0.0 | 0.00 | 0.00 | 0.00 | 30 | 1006.1 |
| 20260508230511 | 69 | 214 | 1.0 | 0.0 | 0.00 | 0.00 | 0.00 | 29 | 1005.1 |
| 20260508230011 | 69 | 207 | 0.0 | 0.0 | 0.00 | 0.00 | 0.00 | 29 | 1005.1 |
| 20260508225512 | 69 | 202 | 0.0 | 0.0 | 0.00 | 0.00 | 0.00 | 30 | 1005.0 |
| 20260508225012 | 69 | 195 | 4.0 | 0.0 | 0.00 | 0.00 | 0.00 | 31 | 1005.0 |
| 20260508224511 | 69 | 185 | 0.0 | 0.0 | 0.00 | 0.00 | 0.00 | 30 | 1005.0 |
| 20260508224011 | 69 | 195 | 0.0 | 0.0 | 0.00 | 0.00 | 0.00 | 31 | 1005.0 |
| 20260508223511 | 70 | 184 | 2.0 | 0.0 | 0.00 | 0.00 | 0.00 | 30 | 1005.0 |
| 20260508223013 | 70 | 196 | 2.0 | 0.0 | 0.00 | 0.00 | 0.00 | 30 | 1005.0 |
| 20260508222511 | 70 | 181 | 1.0 | 0.0 | 0.00 | 0.00 | 0.00 | 29 | 1005.1 |
| 20260508222012 | 70 | 245 | 1.0 | 0.0 | 0.00 | 0.00 | 0.00 | 30 | 1005.1 |
| 20260508221511 | 70 | 189 | 2.0 | 0.0 | 0.00 | 0.00 | 0.00 | 33 | 1005.1 |
| 20260508221011 | 70 | 215 | 3.0 | 0.0 | 0.00 | 0.00 | 0.00 | 32 | 1005.1 |
| 20260508220511 | 70 | 181 | 0.0 | 0.0 | 0.00 | 0.00 | 0.00 | 30 | 1005.1 |
| 20260508215511 | 70 | 206 | 7.0 | 0.0 | 0.00 | 0.00 | 0.00 | 29 | 1005.2 |
| 20260508215011 | 70 | 210 | 0.0 | 0.0 | 0.00 | 0.00 | 0.00 | 31 | 1005.2 |
| 20260508214512 | 70 | 195 | 3.0 | 0.0 | 0.00 | 0.00 | 0.00 | 31 | 1005.2 |
| 20260508214011 | 70 | 158 | 3.0 | 0.0 | 0.00 | 0.00 | 0.00 | 31 | 1005.2 |
| 20260508213511 | 70 | 238 | 3.0 | 0.0 | 0.00 | 0.00 | 0.00 | 31 | 1005.2 |
| 20260508213011 | 70 | 177 | 0.0 | 0.0 | 0.00 | 0.00 | 0.00 | 31 | 1005.2 |
| 20260508212510 | 70 | 193 | 4.0 | 0.0 | 0.00 | 0.00 | 0.00 | 31 | 1005.2 |
| 20260508212012 | 70 | 182 | 4.0 | 0.0 | 0.00 | 0.00 | 0.00 | 31 | 1005.2 |
| 20260508211012 | 70 | 186 | 5.0 | 0.0 | 0.00 | 0.00 | 0.00 | 30 | 1006.2 |
| 20260508210511 | 70 | 186 | 5.0 | 0.0 | 0.00 | 0.00 | 0.00 | 30 | 1006.2 |
| 20260508205010 | 70 | 184 | 1.0 | 0.0 | 0.00 | 0.00 | 0.00 | 30 | 1006.3 |
| 20260508204510 | 71 | 195 | 1.0 | 0.0 | 0.00 | 0.00 | 0.00 | 31 | 1006.3 |
| 20260508203510 | 70 | 83 | 6.0 | 0.0 | 0.00 | 0.00 | 0.00 | 31 | 1006.6 |
| 20260508203011 | 71 | 199 | 3.0 | 0.0 | 0.00 | 0.00 | 0.00 | 30 | 1006.6 |
| 20260508202511 | 70 | 207 | 0.0 | 0.0 | 0.00 | 0.00 | 0.00 | 31 | 1006.8 |
| 20260508202010 | 70 | 207 | 0.0 | 0.0 | 0.00 | 0.00 | 0.00 | 32 | 1006.8 |
| 20260508201510 | 71 | 204 | 6.0 | 0.0 | 0.00 | 0.00 | 0.00 | 30 | 1006.8 |
| 20260508201011 | 71 | 209 | 5.0 | 0.0 | 0.00 | 0.00 | 0.00 | 32 | 1007.1 |
| 20260508200010 | 70 | 181 | 0.0 | 0.0 | 0.00 | 0.00 | 0.00 | 30 | 1007.1 |
| 20260508195510 | 70 | 300 | 3.0 | 0.0 | 0.00 | 0.00 | 0.00 | 32 | 1007.4 |
| 20260508192512 | 70 | 193 | 1.0 | 0.0 | 0.00 | 0.00 | 0.00 | 33 | 1008.1 |
| 20260508192010 | 70 | 197 | 2.0 | 0.0 | 0.00 | 0.00 | 0.00 | 31 | 1008.1 |
| 20260508191512 | 70 | 216 | 3.0 | 0.0 | 0.00 | 0.00 | 0.00 | 32 | 1008.1 |
| 20260508191010 | 70 | 210 | 3.0 | 0.0 | 0.00 | 0.00 | 0.00 | 34 | 1008.3 |
| 20260508190510 | 69 | 209 | 3.0 | 0.0 | 0.00 | 0.00 | 0.00 | 32 | 1008.3 |
| 20260508190011 | 69 | 119 | 4.0 | 0.0 | 0.00 | 0.00 | 0.00 | 32 | 1008.3 |
| 20260508185011 | 69 | 205 | 1.0 | 0.0 | 0.00 | 0.00 | 0.00 | 33 | 1008.7 |
| 20260508184511 | 70 | 191 | 3.0 | 0.0 | 0.00 | 0.00 | 0.00 | 34 | 1008.7 |
| 20260508184011 | 69 | 156 | 0.0 | 0.0 | 0.00 | 0.00 | 0.00 | 34 | 1008.9 |
| 20260508183511 | 69 | 233 | 0.0 | 0.0 | 0.00 | 0.00 | 0.00 | 35 | 1008.9 |
| 20260508183012 | 70 | 215 | 0.0 | 0.0 | 0.00 | 0.00 | 0.00 | 33 | 1008.9 |
| 20260508182511 | 70 | 208 | 4.0 | 0.0 | 0.00 | 0.00 | 0.00 | 32 | 1009.1 |
| 20260508182011 | 69 | 138 | 1.0 | 0.0 | 0.00 | 0.00 | 0.00 | 34 | 1009.1 |
| 20260508181511 | 69 | 308 | 0.0 | 0.0 | 0.00 | 0.00 | 0.00 | 35 | 1009.1 |
| 20260508181011 | 69 | 212 | 0.0 | 0.0 | 0.00 | 0.00 | 0.00 | 36 | 1009.4 |
| 20260508180511 | 68 | 174 | 0.0 | 0.0 | 0.00 | 0.00 | 0.00 | 35 | 1009.4 |
| 20260508180011 | 67 | 312 | 3.0 | 0.0 | 0.00 | 0.00 | 0.00 | 36 | 1009.4 |
| 20260508175511 | 68 | 203 | 5.0 | 0.0 | 0.00 | 0.00 | 0.00 | 38 | 1009.6 |
| 20260508175011 | 68 | 186 | 0.0 | 0.0 | 0.00 | 0.00 | 0.00 | 35 | 1009.6 |
| 20260508174511 | 68 | 165 | 0.0 | 0.0 | 0.00 | 0.00 | 0.00 | 34 | 1009.6 |
| 20260508174011 | 68 | 221 | 0.0 | 0.0 | 0.00 | 0.00 | 0.00 | 36 | 1009.8 |
| 20260508173511 | 68 | 231 | 1.0 | 0.0 | 0.00 | 0.00 | 0.00 | 39 | 1009.8 |
| 20260508173011 | 67 | 174 | 2.0 | 0.0 | 0.00 | 0.00 | 0.00 | 37 | 1009.8 |
| 20260508172511 | 68 | 158 | 2.0 | 0.0 | 0.00 | 0.00 | 0.00 | 36 | 1010.0 |
| 20260508172011 | 68 | 238 | 4.0 | 0.0 | 0.00 | 0.00 | 0.00 | 37 | 1010.0 |
| 20260508171511 | 68 | 223 | 4.0 | 0.0 | 0.00 | 0.00 | 0.00 | 36 | 1010.0 |
| 20260508170511 | 67 | 180 | 0.0 | 0.0 | 0.00 | 0.00 | 0.00 | 36 | 1010.3 |
| 20260508170011 | 66 | 214 | 1.0 | 0.0 | 0.00 | 0.00 | 0.00 | 36 | 1010.3 |
| 20260508165511 | 66 | 198 | 2.0 | 0.0 | 0.00 | 0.00 | 0.00 | 34 | 1010.5 |
| 20260508165011 | 67 | 209 | 0.0 | 0.0 | 0.00 | 0.00 | 0.00 | 37 | 1010.5 |
| 20260508164511 | 67 | 189 | 7.0 | 0.0 | 0.00 | 0.00 | 0.00 | 39 | 1010.5 |
| 20260508164011 | 67 | 280 | 0.0 | 0.0 | 0.00 | 0.00 | 0.00 | 41 | 1010.8 |
| 20260508163511 | 67 | 181 | 2.0 | 0.0 | 0.00 | 0.00 | 0.00 | 37 | 1010.8 |
| 20260508163013 | 66 | 150 | 0.0 | 0.0 | 0.00 | 0.00 | 0.00 | 41 | 1010.8 |
| 20260508162011 | 66 | 345 | 2.0 | 0.0 | 0.00 | 0.00 | 0.00 | 39 | 1011.2 |
| 20260508161511 | 66 | 203 | 5.0 | 0.0 | 0.00 | 0.00 | 0.00 | 38 | 1011.2 |
| 20260508160511 | 65 | 236 | 0.0 | 0.0 | 0.00 | 0.00 | 0.00 | 39 | 1011.3 |
| 20260508155511 | 64 | 199 | 2.0 | 0.0 | 0.00 | 0.00 | 0.00 | 38 | 1011.3 |
| 20260508155011 | 64 | 177 | 2.0 | 0.0 | 0.00 | 0.00 | 0.00 | 37 | 1011.3 |
| 20260508154511 | 65 | 207 | 0.0 | 0.0 | 0.00 | 0.00 | 0.00 | 42 | 1011.3 |
| 20260508154011 | 64 | 159 | 0.0 | 0.0 | 0.00 | 0.00 | 0.00 | 42 | 1011.3 |
| 20260508153511 | 64 | 272 | 0.0 | 0.0 | 0.00 | 0.00 | 0.00 | 41 | 1011.3 |
| 20260508153011 | 64 | 272 | 0.0 | 0.0 | 0.00 | 0.00 | 0.00 | 44 | 1011.3 |
| 20260508152511 | 64 | 193 | 0.0 | 0.0 | 0.00 | 0.00 | 0.00 | 44 | 1011.4 |
| 20260508152011 | 63 | 203 | 3.0 | 0.0 | 0.00 | 0.00 | 0.00 | 48 | 1011.4 |
| 20260508151511 | 63 | 334 | 0.0 | 0.0 | 0.00 | 0.00 | 0.00 | 47 | 1011.4 |
| 20260508151010 | 62 | 181 | 0.0 | 0.0 | 0.00 | 0.00 | 0.00 | 46 | 1011.5 |
| 20260508150512 | 63 | 173 | 0.0 | 0.0 | 0.00 | 0.00 | 0.00 | 49 | 1011.5 |
| 20260508150011 | 62 | 207 | 0.0 | 0.0 | 0.00 | 0.00 | 0.00 | 51 | 1011.5 |
| 20260508145011 | 61 | 260 | 0.0 | 0.0 | 0.00 | 0.00 | 0.00 | 48 | 1011.6 |
| 20260508144511 | 60 | 261 | 0.0 | 0.0 | 0.00 | 0.00 | 0.00 | 49 | 1011.6 |
| 20260508144011 | 60 | 193 | 0.0 | 0.0 | 0.00 | 0.00 | 0.00 | 51 | 1010.6 |
| 20260508143511 | 60 | 186 | 0.0 | 0.0 | 0.00 | 0.00 | 0.00 | 51 | 1010.6 |
| 20260508143012 | 60 | 302 | 0.0 | 0.0 | 0.00 | 0.00 | 0.00 | 54 | 1010.6 |
| 20260508142512 | 59 | 206 | 0.0 | 0.0 | 0.00 | 0.00 | 0.00 | 52 | 1010.8 |
| 20260508142011 | 59 | 224 | 0.0 | 0.0 | 0.00 | 0.00 | 0.00 | 57 | 1010.8 |
| 20260508141511 | 58 | 224 | 3.0 | 0.0 | 0.00 | 0.00 | 0.00 | 52 | 1010.8 |
| 20260508141010 | 58 | 212 | 0.0 | 0.0 | 0.00 | 0.00 | 0.00 | 51 | 1010.8 |
| 20260508140510 | 58 | 195 | 0.0 | 0.0 | 0.00 | 0.00 | 0.00 | 55 | 1010.8 |
| 20260508135510 | 56 | 118 | 0.0 | 0.0 | 0.00 | 0.00 | 0.00 | 56 | 1010.9 |
| 20260508135011 | 56 | 196 | 0.0 | 0.0 | 0.00 | 0.00 | 0.00 | 63 | 1010.9 |
| 20260508134511 | 55 | 8 | 0.0 | 0.0 | 0.00 | 0.00 | 0.00 | 64 | 1010.9 |
| 20260508134012 | 54 | 10 | 0.0 | 0.0 | 0.00 | 0.00 | 0.00 | 70 | 1011.0 |
| 20260508133511 | 53 | 9 | 0.0 | 0.0 | 0.00 | 0.00 | 0.00 | 71 | 1011.0 |
| 20260508133011 | 52 | 8 | 0.0 | 0.0 | 0.00 | 0.00 | 0.00 | 72 | 1011.0 |
| 20260508132511 | 51 | 8 | 0.0 | 0.0 | 0.00 | 0.00 | 0.00 | 73 | 1011.0 |
| 20260508132011 | 51 | 309 | 0.0 | 0.0 | 0.00 | 0.00 | 0.00 | 77 | 1011.0 |
| 20260508131511 | 50 | 309 | 0.0 | 0.0 | 0.00 | 0.00 | 0.00 | 76 | 1011.0 |
| 20260508131013 | 50 | 310 | 0.0 | 0.0 | 0.00 | 0.00 | 0.00 | 77 | 1011.1 |
| 20260508130511 | 49 | 309 | 0.0 | 0.0 | 0.00 | 0.00 | 0.00 | 78 | 1011.1 |
| 20260508125011 | 47 | 309 | 0.0 | 0.0 | 0.00 | 0.00 | 0.00 | 84 | 1011.1 |
| 20260508124511 | 46 | 309 | 0.0 | 0.0 | 0.00 | 0.00 | 0.00 | 86 | 1011.1 |
| 20260508123511 | 46 | 309 | 0.0 | 0.0 | 0.00 | 0.00 | 0.00 | 89 | 1011.3 |
| 20260508123011 | 45 | 309 | 0.0 | 0.0 | 0.00 | 0.00 | 0.00 | 91 | 1011.3 |
| 20260508122512 | 44 | 309 | 0.0 | 0.0 | 0.00 | 0.00 | 0.00 | 94 | 1011.2 |
| 20260508122011 | 44 | 309 | 0.0 | 0.0 | 0.00 | 0.00 | 0.00 | 95 | 1011.2 |
| 20260508121511 | 43 | 309 | 0.0 | 0.0 | 0.00 | 0.00 | 0.00 | 97 | 1011.2 |
| 20260508121011 | 43 | 309 | 0.0 | 0.0 | 0.00 | 0.00 | 0.00 | 98 | 1011.1 |
| 20260508120013 | 41 | 310 | 0.0 | 0.0 | 0.00 | 0.00 | 0.00 | 99 | 1011.1 |
| 20260508115511 | 41 | 309 | 0.0 | 0.0 | 0.00 | 0.00 | 0.00 | 100 | 1011.1 |
| 20260508115011 | 40 | 309 | 0.0 | 0.0 | 0.00 | 0.00 | 0.00 | 100 | 1011.1 |
| 20260508114011 | 39 | 309 | 0.0 | 0.0 | 0.00 | 0.00 | 0.00 | 100 | 1011.0 |
| 20260508113511 | 38 | 309 | 0.0 | 0.0 | 0.00 | 0.00 | 0.00 | 100 | 1011.0 |
| 20260508112511 | 38 | 309 | 0.0 | 0.0 | 0.00 | 0.00 | 0.00 | 100 | 1011.0 |
| 20260508112011 | 38 | 309 | 0.0 | 0.0 | 0.00 | 0.00 | 0.00 | 100 | 1011.0 |
| 20260508111511 | 37 | 310 | 0.0 | 0.0 | 0.00 | 0.00 | 0.00 | 100 | 1011.0 |
| 20260508111011 | 37 | 309 | 0.0 | 0.0 | 0.00 | 0.00 | 0.00 | 100 | 1010.8 |
| 20260508110511 | 37 | 309 | 0.0 | 0.0 | 0.00 | 0.00 | 0.00 | 99 | 1010.8 |
| 20260508110011 | 37 | 309 | 0.0 | 0.0 | 0.00 | 0.00 | 0.00 | 99 | 1010.8 |
| 20260508105512 | 37 | 309 | 0.0 | 0.0 | 0.00 | 0.00 | 0.00 | 99 | 1010.7 |
| 20260508105011 | 36 | 309 | 0.0 | 0.0 | 0.00 | 0.00 | 0.00 | 99 | 1010.7 |
| 20260508104511 | 36 | 309 | 0.0 | 0.0 | 0.00 | 0.00 | 0.00 | 99 | 1010.7 |
| 20260508104011 | 36 | 309 | 0.0 | 0.0 | 0.00 | 0.00 | 0.00 | 98 | 1010.6 |
| 20260508103011 | 37 | 309 | 0.0 | 0.0 | 0.00 | 0.00 | 0.00 | 98 | 1010.6 |
| 20260508102510 | 37 | 309 | 0.0 | 0.0 | 0.00 | 0.00 | 0.00 | 98 | 1010.5 |
| 20260508102011 | 37 | 309 | 0.0 | 0.0 | 0.00 | 0.00 | 0.00 | 98 | 1010.5 |
| 20260508101012 | 37 | 309 | 0.0 | 0.0 | 0.00 | 0.00 | 0.00 | 98 | 1010.4 |
| 20260508100511 | 37 | 310 | 0.0 | 0.0 | 0.00 | 0.00 | 0.00 | 98 | 1010.4 |
| 20260508100012 | 37 | 310 | 0.0 | 0.0 | 0.00 | 0.00 | 0.00 | 98 | 1010.4 |
| 20260508095011 | 37 | 309 | 0.0 | 0.0 | 0.00 | 0.00 | 0.00 | 98 | 1010.3 |
| 20260508094511 | 37 | 310 | 0.0 | 0.0 | 0.00 | 0.00 | 0.00 | 98 | 1010.3 |
| 20260508094011 | 37 | 309 | 0.0 | 0.0 | 0.00 | 0.00 | 0.00 | 98 | 1010.2 |
| 20260508093511 | 37 | 309 | 0.0 | 0.0 | 0.00 | 0.00 | 0.00 | 98 | 1010.2 |
| 20260508093011 | 37 | 309 | 0.0 | 0.0 | 0.00 | 0.00 | 0.00 | 98 | 1010.2 |
| 20260508092511 | 37 | 309 | 0.0 | 0.0 | 0.00 | 0.00 | 0.00 | 97 | 1010.1 |
| 20260508092010 | 38 | 309 | 0.0 | 0.0 | 0.00 | 0.00 | 0.00 | 97 | 1010.1 |
| 20260508091511 | 38 | 309 | 0.0 | 0.0 | 0.00 | 0.00 | 0.00 | 98 | 1010.1 |
| 20260508091011 | 38 | 309 | 0.0 | 0.0 | 0.00 | 0.00 | 0.00 | 97 | 1009.9 |
| 20260508090510 | 38 | 309 | 0.0 | 0.0 | 0.00 | 0.00 | 0.00 | 97 | 1009.9 |
| 20260508090010 | 38 | 309 | 0.0 | 0.0 | 0.00 | 0.00 | 0.00 | 97 | 1009.9 |
| 20260508085510 | 38 | 309 | 0.0 | 0.0 | 0.00 | 0.00 | 0.00 | 97 | 1009.9 |
| 20260508084511 | 38 | 309 | 0.0 | 0.0 | 0.00 | 0.00 | 0.00 | 97 | 1009.9 |
| 20260508084010 | 38 | 309 | 0.0 | 0.0 | 0.00 | 0.00 | 0.00 | 97 | 1009.9 |
| 20260508083510 | 38 | 309 | 0.0 | 0.0 | 0.00 | 0.00 | 0.00 | 97 | 1009.9 |
| 20260508083011 | 38 | 310 | 0.0 | 0.0 | 0.00 | 0.00 | 0.00 | 97 | 1009.9 |
| 20260508082511 | 38 | 309 | 0.0 | 0.0 | 0.00 | 0.00 | 0.00 | 97 | 1009.9 |
| 20260508082010 | 38 | 310 | 0.0 | 0.0 | 0.00 | 0.00 | 0.00 | 97 | 1009.9 |
| 20260508081510 | 38 | 309 | 0.0 | 0.0 | 0.00 | 0.00 | 0.00 | 97 | 1009.9 |
| 20260508081010 | 38 | 309 | 0.0 | 0.0 | 0.00 | 0.00 | 0.00 | 96 | 1010.0 |
| 20260508080510 | 38 | 309 | 0.0 | 0.0 | 0.00 | 0.00 | 0.00 | 96 | 1010.0 |
| 20260508075510 | 38 | 310 | 0.0 | 0.0 | 0.00 | 0.00 | 0.00 | 96 | 1009.9 |
| 20260508075010 | 38 | 309 | 0.0 | 0.0 | 0.00 | 0.00 | 0.00 | 96 | 1009.9 |
| 20260508074010 | 39 | 309 | 0.0 | 0.0 | 0.00 | 0.00 | 0.00 | 96 | 1009.9 |
| 20260508073510 | 39 | 309 | 0.0 | 0.0 | 0.00 | 0.00 | 0.00 | 96 | 1009.9 |
| 20260508073011 | 39 | 309 | 0.0 | 0.0 | 0.00 | 0.00 | 0.00 | 95 | 1009.9 |
| 20260508072510 | 39 | 309 | 0.0 | 0.0 | 0.00 | 0.00 | 0.00 | 95 | 1009.9 |
| 20260508072010 | 39 | 309 | 0.0 | 0.0 | 0.00 | 0.00 | 0.00 | 95 | 1009.9 |
| 20260508071510 | 39 | 309 | 0.0 | 0.0 | 0.00 | 0.00 | 0.00 | 95 | 1009.9 |
| 20260508071010 | 39 | 308 | 0.0 | 0.0 | 0.00 | 0.00 | 0.00 | 95 | 1009.8 |
| 20260508070510 | 39 | 309 | 0.0 | 0.0 | 0.00 | 0.00 | 0.00 | 95 | 1009.8 |
| 20260508070010 | 39 | 309 | 0.0 | 0.0 | 0.00 | 0.00 | 0.00 | 95 | 1009.8 |
| 20260508065510 | 40 | 309 | 0.0 | 0.0 | 0.00 | 0.00 | 0.00 | 95 | 1009.8 |
| 20260508065010 | 40 | 309 | 0.0 | 0.0 | 0.00 | 0.00 | 0.00 | 95 | 1009.8 |
| 20260508064512 | 40 | 309 | 0.0 | 0.0 | 0.00 | 0.00 | 0.00 | 95 | 1009.8 |
| 20260508064010 | 40 | 309 | 0.0 | 0.0 | 0.00 | 0.00 | 0.00 | 95 | 1009.9 |
| 20260508063510 | 40 | 309 | 0.0 | 0.0 | 0.00 | 0.00 | 0.00 | 94 | 1009.9 |
| 20260508063010 | 40 | 309 | 0.0 | 0.0 | 0.00 | 0.00 | 0.00 | 94 | 1009.9 |
| 20260508062511 | 40 | 309 | 0.0 | 0.0 | 0.00 | 0.00 | 0.00 | 94 | 1010.0 |
| 20260508062011 | 40 | 309 | 0.0 | 0.0 | 0.00 | 0.00 | 0.00 | 94 | 1010.0 |
| 20260508061511 | 40 | 309 | 0.0 | 0.0 | 0.00 | 0.00 | 0.00 | 93 | 1010.0 |
| 20260508061011 | 40 | 309 | 0.0 | 0.0 | 0.00 | 0.00 | 0.00 | 93 | 1010.0 |
| 20260508060511 | 40 | 309 | 0.0 | 0.0 | 0.00 | 0.00 | 0.00 | 93 | 1010.0 |
| 20260508060011 | 41 | 309 | 0.0 | 0.0 | 0.00 | 0.00 | 0.00 | 93 | 1010.0 |
| 20260508055511 | 41 | 309 | 0.0 | 0.0 | 0.00 | 0.00 | 0.00 | 93 | 1009.9 |
| 20260508055011 | 41 | 309 | 0.0 | 0.0 | 0.00 | 0.00 | 0.00 | 92 | 1009.9 |
| 20260508054513 | 41 | 309 | 0.0 | 0.0 | 0.00 | 0.00 | 0.00 | 92 | 1009.9 |
| 20260508054011 | 41 | 309 | 0.0 | 0.0 | 0.00 | 0.00 | 0.00 | 92 | 1009.9 |
| 20260508053511 | 41 | 309 | 0.0 | 0.0 | 0.00 | 0.00 | 0.00 | 92 | 1009.9 |
| 20260508053011 | 41 | 309 | 0.0 | 0.0 | 0.00 | 0.00 | 0.00 | 92 | 1009.9 |
| 20260508052511 | 42 | 309 | 0.0 | 0.0 | 0.00 | 0.00 | 0.00 | 91 | 1009.9 |
| 20260508052011 | 42 | 309 | 0.0 | 0.0 | 0.00 | 0.00 | 0.00 | 91 | 1009.9 |
| 20260508051511 | 42 | 309 | 0.0 | 0.0 | 0.00 | 0.00 | 0.00 | 91 | 1009.9 |
| 20260508051011 | 42 | 309 | 0.0 | 0.0 | 0.00 | 0.00 | 0.00 | 91 | 1009.9 |
| 20260508050011 | 42 | 309 | 0.0 | 0.0 | 0.00 | 0.00 | 0.00 | 90 | 1009.9 |
| 20260508045511 | 42 | 309 | 0.0 | 0.0 | 0.00 | 0.00 | 0.00 | 90 | 1009.9 |
| 20260508044511 | 43 | 309 | 0.0 | 0.0 | 0.00 | 0.00 | 0.00 | 89 | 1009.9 |
| 20260508044011 | 43 | 309 | 0.0 | 0.0 | 0.00 | 0.00 | 0.00 | 89 | 1009.9 |
| 20260508043511 | 43 | 309 | 0.0 | 0.0 | 0.00 | 0.00 | 0.00 | 88 | 1009.9 |
| 20260508043011 | 43 | 309 | 0.0 | 0.0 | 0.00 | 0.00 | 0.00 | 88 | 1009.9 |
| 20260508042511 | 43 | 309 | 0.0 | 0.0 | 0.00 | 0.00 | 0.00 | 87 | 1009.8 |
| 20260508042011 | 43 | 309 | 0.0 | 0.0 | 0.00 | 0.00 | 0.00 | 87 | 1009.8 |
| 20260508041511 | 44 | 309 | 0.0 | 0.0 | 0.00 | 0.00 | 0.00 | 87 | 1009.8 |
| 20260508041011 | 44 | 309 | 0.0 | 0.0 | 0.00 | 0.00 | 0.00 | 87 | 1009.9 |
| 20260508040511 | 44 | 309 | 0.0 | 0.0 | 0.00 | 0.00 | 0.00 | 86 | 1009.9 |
| 20260508040011 | 44 | 309 | 0.0 | 0.0 | 0.00 | 0.00 | 0.00 | 86 | 1009.9 |
| 20260508035511 | 44 | 309 | 0.0 | 0.0 | 0.00 | 0.00 | 0.00 | 85 | 1009.8 |
| 20260508035011 | 44 | 305 | 0.0 | 0.0 | 0.00 | 0.00 | 0.00 | 85 | 1009.8 |
| 20260508034011 | 45 | 305 | 0.0 | 0.0 | 0.00 | 0.00 | 0.00 | 83 | 1009.9 |
| 20260508033511 | 45 | 305 | 0.0 | 0.0 | 0.00 | 0.00 | 0.00 | 82 | 1009.9 |
| 20260508032511 | 45 | 305 | 0.0 | 0.0 | 0.00 | 0.00 | 0.00 | 81 | 1009.6 |
| 20260508031011 | 46 | 305 | 0.0 | 0.0 | 0.00 | 0.00 | 0.00 | 80 | 1009.5 |
| 20260508030511 | 46 | 305 | 0.0 | 0.0 | 0.00 | 0.00 | 0.00 | 79 | 1009.5 |
| 20260508025511 | 47 | 304 | 0.0 | 0.0 | 0.00 | 0.00 | 0.00 | 77 | 1009.3 |
| 20260508025012 | 47 | 304 | 0.0 | 0.0 | 0.00 | 0.00 | 0.00 | 75 | 1009.3 |
| 20260508024511 | 47 | 305 | 0.0 | 0.0 | 0.00 | 0.00 | 0.00 | 75 | 1009.3 |
| 20260508024011 | 47 | 305 | 0.0 | 0.0 | 0.00 | 0.00 | 0.00 | 73 | 1009.1 |
| 20260508023511 | 48 | 305 | 0.0 | 0.0 | 0.00 | 0.00 | 0.00 | 72 | 1009.1 |
| 20260508023011 | 48 | 304 | 0.0 | 0.0 | 0.00 | 0.00 | 0.00 | 70 | 1009.1 |
| 20260508022011 | 49 | 304 | 0.0 | 0.0 | 0.00 | 0.00 | 0.00 | 68 | 1008.8 |
| 20260508021512 | 49 | 305 | 0.0 | 0.0 | 0.00 | 0.00 | 0.00 | 67 | 1008.8 |
| 20260508020510 | 49 | 305 | 0.0 | 0.0 | 0.00 | 0.00 | 0.00 | 66 | 1008.6 |
| 20260508020011 | 50 | 305 | 0.0 | 0.0 | 0.00 | 0.00 | 0.00 | 64 | 1008.6 |
| 20260508015510 | 50 | 305 | 0.0 | 0.0 | 0.00 | 0.00 | 0.00 | 63 | 1008.3 |
| 20260508015011 | 50 | 305 | 0.0 | 0.0 | 0.00 | 0.00 | 0.00 | 61 | 1008.3 |
| 20260508014512 | 50 | 305 | 0.0 | 0.0 | 0.00 | 0.00 | 0.00 | 61 | 1008.3 |
| 20260508014011 | 50 | 305 | 0.0 | 0.0 | 0.00 | 0.00 | 0.00 | 60 | 1008.2 |
| 20260508013511 | 51 | 305 | 0.0 | 0.0 | 0.00 | 0.00 | 0.00 | 61 | 1008.2 |
| 20260508013012 | 51 | 305 | 0.0 | 0.0 | 0.00 | 0.00 | 0.00 | 60 | 1008.2 |
| 20260508012512 | 51 | 304 | 0.0 | 0.0 | 0.00 | 0.00 | 0.00 | 58 | 1007.9 |
| 20260508012010 | 52 | 305 | 0.0 | 0.0 | 0.00 | 0.00 | 0.00 | 60 | 1007.9 |